Tracking 28779 objects as of 17-Apr-2024
HD Live streaming from Space Station
objects crossing your sky now

CZ-4C DEB

Track CZ-4C DEB now!
10-day predictions


NORAD ID: 44617
Int'l Code: 2018-034J
Perigee: 976.3 km
Apogee: 1,249.6 km
Inclination: 63.4 °
Period: 107.4 minutes
Semi major axis: 7483 km
RCS: Unknown
Launch date: April 10, 2018
Source: People's Republic of China (PRC)
Launch site: Taiyaun Space Center, China (TSC)

Note: This is SATELLITE DEBRIS
Your satellite tracking list
Your tracking list is empty




NASA's NSSDC Master Catalog

Two Line Element Set (TLE):
1 44617U 18034J   24107.32570898 -.00000040  00000-0  80874-4 0  9990
2 44617  63.4045  10.5909 0182598   5.7924 354.5153 13.40941499288053
Source of the keplerian elements: AFSPC